1998-067TB

Last updated on Sat Jan 29 2022 00:02:05 GMT+0000 (Coordinated Universal Time)

1 51439U 98067TB 22028.76998445 .00045454 00000+0 78960-3 0 9992 2 51439 51.6427 307.0071 0008871 78.6641 281.5524 15.50327452 385
UTC large
Height (km)
Speed (km/s)
/
Latitude / Longitude
Inclination (degrees)
Orbital Period (minutes)
Azimuth
Elevation
Range (km)
Doppler Factor

Next 0 passes for location: London (51.5072 / 0.1276)

Sorry there are no passes over London.